Address 0x94eff443e7c921f56d323f0068786e2ac1af0dee

Overview

Balance:
0.00032149769 MATIC
My Name Tag:
Not Available

Txn Hash Method
Block
From
To
Value [Txn Fee]
0xaba441f022201ccedf725c1993506842abf239f62a17e8823021f1b9bb6b12e1Transfer263427572022-05-17 2:19:25199 days 16 hrs ago0x94eff443e7c921f56d323f0068786e2ac1af0deeOUT0x87f70751d283d4d4b7cc16586e2e3afcf528ca7b6.249322 MATIC0.000178501478.50007
0xdbf88f95c676fa9affde27e11d5e74c320954d09f0258aa6eb524597f8243a25Transfer262802652022-05-11 0:57:42205 days 18 hrs ago0x94eff443e7c921f56d323f0068786e2ac1af0deeOUT0x87f70751d283d4d4b7cc16586e2e3afcf528ca7b9.999821 MATIC0.000178500218.50001
0xac2d72fe9a11745d0c93d88fdb97d90cf4328866887fd73a08bbec48194a15e4Transfer262305202022-05-06 17:46:46210 days 1 hr ago0x94eff443e7c921f56d323f0068786e2ac1af0deeOUT0x87f70751d283d4d4b7cc16586e2e3afcf528ca7b10.05 MATIC0.000178500638.50003
[ Download CSV Export 
Latest 25 internal transaction
Parent Txn Hash Block From To Value
0x3a3f11c7abcdec9b874bf1a87735435efc0c6442c2679b126c385a1721e765b3263022892022-05-13 3:55:37203 days 15 hrs ago 0x7f092e65c688a509737fcd8d0998dd12208f52970x94eff443e7c921f56d323f0068786e2ac1af0dee0.2 MATIC
0x703a1a8f8ab2f69e2ee46bb56cdfdf2338d5750fdfe48b64395dc8bef6c26fa2263007502022-05-13 0:52:02203 days 18 hrs ago 0x7f092e65c688a509737fcd8d0998dd12208f52970x94eff443e7c921f56d323f0068786e2ac1af0dee0.2 MATIC
0x0a0dced9fcc9501acaa8654f809f95d64c04f21e4fe39c0e8579158307015393262962902022-05-12 14:58:07204 days 4 hrs ago 0x7f092e65c688a509737fcd8d0998dd12208f52970x94eff443e7c921f56d323f0068786e2ac1af0dee0.2 MATIC
0x13aab439c6acfdae98fbfa2f30df6fed018f0989c2d56583c5e9f109b5fdcfbb262962862022-05-12 14:57:27204 days 4 hrs ago 0x7f092e65c688a509737fcd8d0998dd12208f52970x94eff443e7c921f56d323f0068786e2ac1af0dee0.2 MATIC
0x1c46a8249c9c876dbc1bbc3754197e34c1dc31e1b65dc3eafc3d8bc2ae6afcf7262962812022-05-12 14:56:37204 days 4 hrs ago 0x7f092e65c688a509737fcd8d0998dd12208f52970x94eff443e7c921f56d323f0068786e2ac1af0dee0.2 MATIC
0x13b478546d2470156e3c330ffea1e5c59082f7a8130f5ef54e42f07505047a66262962742022-05-12 14:55:27204 days 4 hrs ago 0x7f092e65c688a509737fcd8d0998dd12208f52970x94eff443e7c921f56d323f0068786e2ac1af0dee0.2 MATIC
0x3e240076f2bfd31a7105a13a8e1388d45c673aa2913b3ce38d41b3c48decd569262951092022-05-12 12:02:18204 days 7 hrs ago 0x7f092e65c688a509737fcd8d0998dd12208f52970x94eff443e7c921f56d323f0068786e2ac1af0dee0.2 MATIC
0x74948dc28cb494d8f81b54305779b427ba302440a59e0e632692a0963f4f70f2262951042022-05-12 12:01:28204 days 7 hrs ago 0x7f092e65c688a509737fcd8d0998dd12208f52970x94eff443e7c921f56d323f0068786e2ac1af0dee0.2 MATIC
0x38d0f08ea88601a6b894b715416d1566ca9aa53fa956a9bd4e0c04cf0aad7ae8262950982022-05-12 12:00:27204 days 7 hrs ago 0x7f092e65c688a509737fcd8d0998dd12208f52970x94eff443e7c921f56d323f0068786e2ac1af0dee0.2 MATIC
0xc3d434f38223a5eefa3edd3baf7ef7436b3ce9f88fe9e60443364efd36c54614262950962022-05-12 12:00:07204 days 7 hrs ago 0x7f092e65c688a509737fcd8d0998dd12208f52970x94eff443e7c921f56d323f0068786e2ac1af0dee0.2 MATIC
0x6735332a7ea25bb9b86fb95f1cda8ad456debb43df88ad7a33d925f0acf05aa6262921482022-05-12 4:35:02204 days 14 hrs ago 0x7f092e65c688a509737fcd8d0998dd12208f52970x94eff443e7c921f56d323f0068786e2ac1af0dee0.2 MATIC
0xd009852891790fdc3ee34008e7c6a2ade01f37378a060d47b9ca8bc8d7f38c59262912312022-05-12 2:18:53204 days 16 hrs ago 0x7f092e65c688a509737fcd8d0998dd12208f52970x94eff443e7c921f56d323f0068786e2ac1af0dee0.2 MATIC
0x76957f204187145278b0fe88e8ca95e9e0d25402563ffb70cd5ca4c14d44a20f262900152022-05-11 23:38:34204 days 19 hrs ago 0x7f092e65c688a509737fcd8d0998dd12208f52970x94eff443e7c921f56d323f0068786e2ac1af0dee0.2 MATIC
0x9af973b1ed6204b012f68f54f894216496dc488f014e3130b1c5631c12fe1b7e262896542022-05-11 22:54:18204 days 20 hrs ago 0x7f092e65c688a509737fcd8d0998dd12208f52970x94eff443e7c921f56d323f0068786e2ac1af0dee0.2 MATIC
0x80713ed59a9cbb268870ab6ffa59ce8d78cf0a538b6c2e998d6264882331d4e5262892972022-05-11 22:05:23204 days 20 hrs ago 0x7f092e65c688a509737fcd8d0998dd12208f52970x94eff443e7c921f56d323f0068786e2ac1af0dee0.2 MATIC
0x0c1ccfb81a3a3cd93707a90feb63976d0919af62dac5cfa26245d448553473fe262889042022-05-11 21:15:47204 days 21 hrs ago 0x7f092e65c688a509737fcd8d0998dd12208f52970x94eff443e7c921f56d323f0068786e2ac1af0dee0.2 MATIC
0xe0309eb9c62593011cb02c579d4e330cd6b34f467fceab1190bd1626483b2bcd262883892022-05-11 20:11:09204 days 22 hrs ago 0x7f092e65c688a509737fcd8d0998dd12208f52970x94eff443e7c921f56d323f0068786e2ac1af0dee0.2 MATIC
0x4bc5db2cf7fe19a3e0d2e235f3d1022872e840ee135dd814e09499e78d56089a262878992022-05-11 19:05:21204 days 23 hrs ago 0x7f092e65c688a509737fcd8d0998dd12208f52970x94eff443e7c921f56d323f0068786e2ac1af0dee0.2 MATIC
0x5dbafdda987196c4b004f20acaa86de30bee25d42e7f3b4651dc4d098b1ff5bb262873012022-05-11 17:46:52205 days 1 hr ago 0x7f092e65c688a509737fcd8d0998dd12208f52970x94eff443e7c921f56d323f0068786e2ac1af0dee0.2 MATIC
0x134f7625f88b8c1d7fc1f02461f6dfcc48ec5d5f3b95920c91c3e1583dae3531262866702022-05-11 16:28:12205 days 2 hrs ago 0x7f092e65c688a509737fcd8d0998dd12208f52970x94eff443e7c921f56d323f0068786e2ac1af0dee0.2 MATIC
0x2eaf56c92c0b1d08b3f22ac2d18029d452cb391cd83c07adfabb77f423dcd4a5262859982022-05-11 15:02:41205 days 4 hrs ago 0x7f092e65c688a509737fcd8d0998dd12208f52970x94eff443e7c921f56d323f0068786e2ac1af0dee0.2 MATIC
0xd8ec86cbff04c0e9d07c6896c5a5deff2f361cb583af7ddd14be5c2de1d8764f262852282022-05-11 13:20:49205 days 5 hrs ago 0x7f092e65c688a509737fcd8d0998dd12208f52970x94eff443e7c921f56d323f0068786e2ac1af0dee0.2 MATIC
0xcaed90f14e3314d25eeb41587e371cba7617e619cc2ad6b97c1414601cc1be17262845892022-05-11 11:55:29205 days 7 hrs ago 0x7f092e65c688a509737fcd8d0998dd12208f52970x94eff443e7c921f56d323f0068786e2ac1af0dee0.2 MATIC
0xfa65064892d552aeab644f9bca4f07601201777735cc7e0fdc52a9c16a55f92e262837652022-05-11 9:47:46205 days 9 hrs ago 0x7f092e65c688a509737fcd8d0998dd12208f52970x94eff443e7c921f56d323f0068786e2ac1af0dee0.2 MATIC
0xc3d9c722ac18daea047f85a842ee50dcf9df7b6a7d63f70f472a0423d3ecca6a262833912022-05-11 8:46:10205 days 10 hrs ago 0x7f092e65c688a509737fcd8d0998dd12208f52970x94eff443e7c921f56d323f0068786e2ac1af0dee0.2 MATIC
[ Download CSV Export 
Loading

Contract Name:
0 MATIC

Compiler Version
0

Optimization Enabled:
0 MATIC

Other Settings:
-NA-
Block Transaction Gas Used Reward
Age Block Fee Address BC Fee Address Voting Power Jailed Incoming
Block Uncle Number Difficulty Gas Used Reward
Loading